Location: Unspecified
(43.4680°N, 87.1740°E)
Time: 21:47:37
(UTC+00:00)

Resurs 1-4 Rocket - Pass Details

Date: 17 April 2021
Orbit: 799 x 815 km, 98.6° (Epoch: 11 May)

Event Time Altitude Azimuth Distance (km) Brightness Sun altitude
Rises 19:25:00 0° 18° (NNE) 3,324 6.4 -33.2°
Reaches altitude 10° 19:27:24 10° 23° (NNE) 2,387 5.4 -33.0°
Enters shadow 19:31:16 43° 54° (NE) 1,114 3.1 -32.7°
